Вернуться в каталог

DELTA 1 DEB

АктивенLEO
NORAD 10867·DEBRIS·🇺🇸 United States

Запущен Jul 29, 1976 с Vandenberg Space Force Base

Loading…

Ближайшие Пролёты (ближайшие 24 часа)

TLE

СвежийSource: Space-Track

Эпоха: Sep 14, 2026, 13:09 UTC

1 10867U 76077CV  26257.54827420  .00000340  00000-0  88588-3 0  9990
2 10867 101.8367 272.0457 0415728  73.1348  73.4114 12.98570505328667

Отслеживайте DELTA 1 DEB в реальном времени с AllMySat

Download on the App Store